Regional Weather Roundup
Issued by NWS Memphis, TN

Home | Current Version | Previous Version | Text Only | Print | Product List | Glossary On
Versions: 1 2 3 4 5 6 7 8 9 10 11 12 13 14 15 16 17 18 19 20 21 22 23 24 25 26 27 28 29 30 31 32 33 34 35 36 37 38 39 40 41 42 43 44 45 46 47 48 49 50
000
ASUS44 KMEG 290010
RWRMEG
MEMPHIS CWA HOURLY WEATHER ROUNDUP
NATIONAL WEATHER SERVICE MEMPHIS TN
700 PM CDT MON JUL 28 2014

...WEST TENNESSEE...

CITY           SKY/WX    TMP DP  RH WIND       PRES   REMARKS
MEMPHIS INTL   MOSUNNY   82  62  50 N9        30.02F
6HR MIN TEMP:  81; 6HR MAX TEMP:  86;

NWS MEMPHIS      N/A     82 N/A N/A MISG        N/A
JACKSON        SUNNY     80  62  54 N9        30.02S
6HR MIN TEMP:  80; 6HR MAX TEMP:  84;

LEXINGTON      SUNNY     77  63  61 NW6       30.01S
SAVANNAH       SUNNY     79  63  57 NW6       30.02R
DYERSBURG      MOSUNNY   81  59  47 NW6       30.03S
6HR MIN TEMP:  79; 6HR MAX TEMP:  82;

UNION CITY     SUNNY     79  63  57 N9        30.02S
PARIS          PTSUNNY   74  61  63 N6        30.03S


...EASTERN ARKANSAS...

CITY           SKY/WX    TMP DP  RH WIND       PRES   REMARKS
JONESBORO      SUNNY     82  63  52 NW5       30.02F
6HR MIN TEMP:  80; 6HR MAX TEMP:  85;

WEST MEMPHIS   SUNNY     83  65  54 N9        30.01F
6HR MIN TEMP:  82; 6HR MAX TEMP:  86;

BATESVILLE     MOSUNNY   82  61  47 W6        30.04S
6HR MIN TEMP:  81; 6HR MAX TEMP:  86;

NEWPORT        SUNNY     84  65  52 N6        30.03F
6HR MIN TEMP:  83; 6HR MAX TEMP:  87;

WALNUT RIDGE   SUNNY     82  63  51 N7        30.02F
6HR MIN TEMP:  81; 6HR MAX TEMP:  86;

BLYTHEVILLE    MOSUNNY   79  66  64 N6        30.02F
6HR MIN TEMP:  79; 6HR MAX TEMP:  85;

SEARCY         SUNNY     84  63  49 NW7       30.04F
6HR MIN TEMP:  83; 6HR MAX TEMP:  86;

STUTTGART      SUNNY     82  63  51 N8        30.04S
6HR MIN TEMP:  82; 6HR MAX TEMP:  86;

PINE BLUFF     MOSUNNY   84  64  50 N8        30.03F
6HR MIN TEMP:  84; 6HR MAX TEMP:  87;

MONTICELLO     MOSUNNY   83  65  54 CALM      30.02S
6HR MIN TEMP:  83; 6HR MAX TEMP:  89;



...NORTH MISSISSIPPI...

CITY           SKY/WX    TMP DP  RH WIND       PRES   REMARKS
TUPELO         SUNNY     80  64  58 NE10      30.00S
6HR MIN TEMP:  80; 6HR MAX TEMP:  86;

OLIVE BRANCH   MOSUNNY   81  64  57 N8        30.03S
CLARKSDALE     SUNNY     82  66  57 NW5       30.03S
CORINTH        SUNNY     81  63  54 NW7       30.01S
GRENADA        SUNNY     81  63  54 N5        30.01S
GREENWOOD      MOSUNNY   83  65  54 N7        30.01R
6HR MIN TEMP:  83; 6HR MAX TEMP:  89;

COLUMBUS       SUNNY     83  64  52 N8        29.99S
6HR MIN TEMP:  83; 6HR MAX TEMP:  88;

STARKVILLE     FAIR      82  63  51 N5        29.99S
GOLDEN TRIANGL MOSUNNY   84  64  51 N7        29.99S


...SOUTHEAST MISSOURI...

CITY           SKY/WX    TMP DP  RH WIND       PRES   REMARKS
WEST PLAINS    MOSUNNY   80  56  43 NW7       30.09F
6HR MIN TEMP:  79; 6HR MAX TEMP:  84;

POPLAR BLUFF   SUNNY     82  61  48 N6        30.02S
6HR MIN TEMP:  80; 6HR MAX TEMP:  86;

CAPE GIRARDEAU CLOUDY    78  61  55 N13       30.04S
6HR MIN TEMP:  78; 6HR MAX TEMP:  83;



...NORTHWEST ALABAMA...

CITY           SKY/WX    TMP DP  RH WIND       PRES   REMARKS
MUSCLE SHOALS  PTCLDY    81  61  50 N3        30.01R
6HR MIN TEMP:  81; 6HR MAX TEMP:  88;



...MIDDLE TENNESSEE...

CITY           SKY/WX    TMP DP  RH WIND       PRES   REMARKS
NASHVILLE      PTCLDY    80  59  48 N8        29.99R
6HR MIN TEMP:  79; 6HR MAX TEMP:  85;

CLARKSVILLE    PTSUNNY   78  58  49 N12       30.00S
6HR MIN TEMP:  78; 6HR MAX TEMP:  85;

DICKSON        MOSUNNY   75  61  60 N8        30.01S
COLUMBIA       PTCLDY    81  63  54 NW5       29.99S
LEWISBURG      CLEAR     79  61  53 VRB6      29.99S


...WESTERN KENTUCKY...

CITY           SKY/WX    TMP DP  RH WIND       PRES   REMARKS
PADUCAH        MOSUNNY   79  60  52 N12       30.03R
6HR MIN TEMP:  79; 6HR MAX TEMP:  86;

FORT CAMPBELL  PTSUNNY   78  60  53 N12       30.01R
6HR MIN TEMP:  77; 6HR MAX TEMP:  83;



...CENTRAL ARKANSAS...

CITY           SKY/WX    TMP DP  RH WIND       PRES   REMARKS
LITTLE ROCK    PTSUNNY   84  60  44 N9        30.03F
6HR MIN TEMP:  84; 6HR MAX TEMP:  89;



SKY/WX REPORTED AS FAIR MEANS FEW OR NO CLOUDS BELOW
12 THOUSAND FEET.



USA.gov is the U.S. government's official web portal to all federal, state and local government web resources and services.